Year,Month,Day,Hour,Minute,Value (Times are PST for temperature in C)
2013,05,01,00,00,5.80
2013,05,01,00,01,5.80
2013,05,01,00,02,5.80
2013,05,01,00,03,5.80
2013,05,01,00,04,5.80
2013,05,01,00,05,5.80
2013,05,01,00,06,5.80
2013,05,01,00,07,5.90
2013,05,01,00,08,5.90
2013,05,01,00,09,5.90
2013,05,01,00,10,6.00
2013,05,01,00,11,6.00
2013,05,01,00,12,6.10
2013,05,01,00,13,6.20
2013,05,01,00,14,6.20
2013,05,01,00,15,6.30
2013,05,01,00,16,6.30
2013,05,01,00,17,6.40
2013,05,01,00,18,6.40
2013,05,01,00,19,6.50
2013,05,01,00,20,6.50
2013,05,01,00,21,6.60
2013,05,01,00,22,6.60
2013,05,01,00,23,6.60
2013,05,01,00,24,6.60
2013,05,01,00,25,6.70
2013,05,01,00,26,6.70
2013,05,01,00,27,6.70
2013,05,01,00,28,6.70
2013,05,01,00,29,6.60
2013,05,01,00,30,6.60
2013,05,01,00,31,6.60
2013,05,01,00,32,6.60
2013,05,01,00,33,6.50
2013,05,01,00,34,6.50
2013,05,01,00,35,6.50
2013,05,01,00,36,6.40
2013,05,01,00,37,6.40
2013,05,01,00,38,6.40
2013,05,01,00,39,6.40
2013,05,01,00,40,6.30
2013,05,01,00,41,6.30
2013,05,01,00,42,6.30
2013,05,01,00,43,6.20
2013,05,01,00,44,6.20
2013,05,01,00,45,6.10
2013,05,01,00,46,6.10
2013,05,01,00,47,6.10
2013,05,01,00,48,6.00
2013,05,01,00,49,6.00
2013,05,01,00,50,5.90
2013,05,01,00,51,5.90
2013,05,01,00,52,5.80
2013,05,01,00,53,5.80
2013,05,01,00,54,5.80
2013,05,01,00,55,5.80
2013,05,01,00,56,5.80
2013,05,01,00,57,5.70
2013,05,01,00,58,5.70
2013,05,01,00,59,5.70
2013,05,01,01,00,5.70
2013,05,01,01,01,5.70
2013,05,01,01,02,5.60
2013,05,01,01,03,5.60
2013,05,01,01,04,5.60
2013,05,01,01,05,5.50
2013,05,01,01,06,5.50
2013,05,01,01,07,5.40
2013,05,01,01,08,5.40
2013,05,01,01,09,5.40
2013,05,01,01,10,5.30
2013,05,01,01,11,5.30
2013,05,01,01,12,5.30
2013,05,01,01,13,5.30
2013,05,01,01,14,5.20
2013,05,01,01,15,5.20
2013,05,01,01,16,5.10
2013,05,01,01,17,5.10
2013,05,01,01,18,5.00
2013,05,01,01,19,4.90
2013,05,01,01,20,4.90
2013,05,01,01,21,4.80
2013,05,01,01,22,4.80
2013,05,01,01,23,4.70
2013,05,01,01,24,4.70
2013,05,01,01,25,4.60
2013,05,01,01,26,4.50
2013,05,01,01,27,4.50
2013,05,01,01,28,4.40
2013,05,01,01,29,4.40
2013,05,01,01,30,4.40
2013,05,01,01,31,4.30
2013,05,01,01,32,4.30
2013,05,01,01,33,4.20
2013,05,01,01,34,4.20
2013,05,01,01,35,4.10
2013,05,01,01,36,4.10
2013,05,01,01,37,4.00
2013,05,01,01,38,4.00
2013,05,01,01,39,3.90
2013,05,01,01,40,3.90
2013,05,01,01,41,3.90
2013,05,01,01,42,3.90
2013,05,01,01,43,3.80
2013,05,01,01,44,3.80
2013,05,01,01,45,3.80
2013,05,01,01,46,3.80
2013,05,01,01,47,3.70
2013,05,01,01,48,3.70
2013,05,01,01,49,3.70
2013,05,01,01,50,3.70
2013,05,01,01,51,3.60
2013,05,01,01,52,3.60
2013,05,01,01,53,3.60
2013,05,01,01,54,3.50
2013,05,01,01,55,3.50
2013,05,01,01,56,3.40
2013,05,01,01,57,3.40
2013,05,01,01,58,3.40
2013,05,01,01,59,3.30
2013,05,01,02,00,3.30
2013,05,01,02,01,3.30
2013,05,01,02,02,3.30
2013,05,01,02,03,3.30
2013,05,01,02,04,3.20
2013,05,01,02,05,3.20
2013,05,01,02,06,3.20
2013,05,01,02,07,3.20
2013,05,01,02,08,3.20
2013,05,01,02,09,3.10
2013,05,01,02,10,3.10
2013,05,01,02,11,3.10
2013,05,01,02,12,3.10
2013,05,01,02,13,3.10
2013,05,01,02,14,3.10
2013,05,01,02,15,3.00
2013,05,01,02,16,3.00
2013,05,01,02,17,3.00
2013,05,01,02,18,3.00
2013,05,01,02,19,2.90
2013,05,01,02,20,2.90
2013,05,01,02,21,2.90
2013,05,01,02,22,2.90
2013,05,01,02,23,2.80
2013,05,01,02,24,2.80
2013,05,01,02,25,2.80
2013,05,01,02,26,2.80
2013,05,01,02,27,2.80
2013,05,01,02,28,2.80
2013,05,01,02,29,2.70
2013,05,01,02,30,2.70
2013,05,01,02,31,2.70
2013,05,01,02,32,2.70
2013,05,01,02,33,2.70
2013,05,01,02,34,2.70
2013,05,01,02,35,2.70
2013,05,01,02,36,2.70
2013,05,01,02,37,2.70
2013,05,01,02,38,2.60
2013,05,01,02,39,2.60
2013,05,01,02,40,2.60
2013,05,01,02,41,2.60
2013,05,01,02,42,2.60
2013,05,01,02,43,2.60
2013,05,01,02,44,2.60
2013,05,01,02,45,2.50
2013,05,01,02,46,2.50
2013,05,01,02,47,2.50
2013,05,01,02,48,2.50
2013,05,01,02,49,2.50
2013,05,01,02,50,2.40
2013,05,01,02,51,2.40
2013,05,01,02,52,2.40
2013,05,01,02,53,2.40
2013,05,01,02,54,2.40
2013,05,01,02,55,2.40
2013,05,01,02,56,2.40
2013,05,01,02,57,2.40
2013,05,01,02,58,2.30
2013,05,01,02,59,2.30
2013,05,01,03,00,2.30
2013,05,01,03,01,2.30
2013,05,01,03,02,2.30
2013,05,01,03,03,2.30
2013,05,01,03,04,2.30
2013,05,01,03,05,2.30
2013,05,01,03,06,2.30
2013,05,01,03,07,2.30
2013,05,01,03,08,2.30
2013,05,01,03,09,2.20
2013,05,01,03,10,2.20
2013,05,01,03,11,2.20
2013,05,01,03,12,2.20
2013,05,01,03,13,2.20
2013,05,01,03,14,2.20
2013,05,01,03,15,2.20
2013,05,01,03,16,2.20
2013,05,01,03,17,2.20
2013,05,01,03,18,2.20
2013,05,01,03,19,2.20
2013,05,01,03,20,2.10
2013,05,01,03,21,2.10
2013,05,01,03,22,2.10
2013,05,01,03,23,2.10
2013,05,01,03,24,2.10
2013,05,01,03,25,2.10
2013,05,01,03,26,2.10
2013,05,01,03,27,2.00
2013,05,01,03,28,2.00
2013,05,01,03,29,2.00
2013,05,01,03,30,2.00
2013,05,01,03,31,2.00
2013,05,01,03,32,1.90
2013,05,01,03,33,1.90
2013,05,01,03,34,1.90
2013,05,01,03,35,1.90
2013,05,01,03,36,1.90
2013,05,01,03,37,1.90
2013,05,01,03,38,1.90
2013,05,01,03,39,1.90
2013,05,01,03,40,1.90
2013,05,01,03,41,1.80
2013,05,01,03,42,1.80
2013,05,01,03,43,1.80
2013,05,01,03,44,1.80
2013,05,01,03,45,1.80
2013,05,01,03,46,1.80
2013,05,01,03,47,1.80
2013,05,01,03,48,1.80
2013,05,01,03,49,1.80
2013,05,01,03,50,1.80
2013,05,01,03,51,1.80
2013,05,01,03,52,1.80
2013,05,01,03,53,1.80
2013,05,01,03,54,1.80
2013,05,01,03,55,1.80
2013,05,01,03,56,1.70
2013,05,01,03,57,1.70
2013,05,01,03,58,1.70
2013,05,01,03,59,1.70
2013,05,01,04,00,1.70
2013,05,01,04,01,1.70
2013,05,01,04,02,1.70
2013,05,01,04,03,1.70
2013,05,01,04,04,1.70
2013,05,01,04,05,1.70
2013,05,01,04,06,1.70
2013,05,01,04,07,1.70
2013,05,01,04,08,1.70
2013,05,01,04,09,1.70
2013,05,01,04,10,1.60
2013,05,01,04,11,1.60
2013,05,01,04,12,1.60
2013,05,01,04,13,1.60
2013,05,01,04,14,1.60
2013,05,01,04,15,1.60
2013,05,01,04,16,1.60
2013,05,01,04,17,1.60
2013,05,01,04,18,1.60
2013,05,01,04,19,1.60
2013,05,01,04,20,1.60
2013,05,01,04,21,1.60
2013,05,01,04,22,1.60
2013,05,01,04,23,1.50
2013,05,01,04,24,1.50
2013,05,01,04,25,1.50
2013,05,01,04,26,1.50
2013,05,01,04,27,1.50
2013,05,01,04,28,1.50
2013,05,01,04,29,1.50
2013,05,01,04,30,1.50
2013,05,01,04,31,1.40
2013,05,01,04,32,1.40
2013,05,01,04,33,1.40
2013,05,01,04,34,1.40
2013,05,01,04,35,1.40
2013,05,01,04,36,1.40
2013,05,01,04,37,1.40
2013,05,01,04,38,1.40
2013,05,01,04,39,1.40
2013,05,01,04,40,1.30
2013,05,01,04,41,1.30
2013,05,01,04,42,1.30
2013,05,01,04,43,1.30
2013,05,01,04,44,1.30
2013,05,01,04,45,1.30
2013,05,01,04,46,1.30
2013,05,01,04,47,1.30
2013,05,01,04,48,1.30
2013,05,01,04,49,1.30
2013,05,01,04,50,1.30
2013,05,01,04,51,1.30
2013,05,01,04,52,1.30
2013,05,01,04,53,1.20
2013,05,01,04,54,1.20
2013,05,01,04,55,1.20
2013,05,01,04,56,1.20
2013,05,01,04,57,1.20
2013,05,01,04,58,1.20
2013,05,01,04,59,1.20
2013,05,01,05,00,1.20
2013,05,01,05,01,1.20
2013,05,01,05,02,1.20
2013,05,01,05,03,1.20
2013,05,01,05,04,1.20
2013,05,01,05,05,1.20
2013,05,01,05,06,1.20
2013,05,01,05,07,1.20
2013,05,01,05,08,1.20
2013,05,01,05,09,1.20
2013,05,01,05,10,1.20
2013,05,01,05,11,1.10
2013,05,01,05,12,1.10
2013,05,01,05,13,1.10
2013,05,01,05,14,1.10
2013,05,01,05,15,1.10
2013,05,01,05,16,1.10
2013,05,01,05,17,1.10
2013,05,01,05,18,1.10
2013,05,01,05,19,1.10
2013,05,01,05,20,1.10
2013,05,01,05,21,1.10
2013,05,01,05,22,1.10
2013,05,01,05,23,1.10
2013,05,01,05,24,1.10
2013,05,01,05,25,1.10
2013,05,01,05,26,1.10
2013,05,01,05,27,1.10
2013,05,01,05,28,1.10
2013,05,01,05,29,1.10
2013,05,01,05,30,1.10
2013,05,01,05,31,1.00
2013,05,01,05,32,1.00
2013,05,01,05,33,1.00
2013,05,01,05,34,1.00
2013,05,01,05,35,1.00
2013,05,01,05,36,1.00
2013,05,01,05,37,1.00
2013,05,01,05,38,1.00
2013,05,01,05,39,1.00
2013,05,01,05,40,1.00
2013,05,01,05,41,1.00
2013,05,01,05,42,1.00
2013,05,01,05,43,1.00
2013,05,01,05,44,1.00
2013,05,01,05,45,1.00
2013,05,01,05,46,0.90
2013,05,01,05,47,0.90
2013,05,01,05,48,0.90
2013,05,01,05,49,0.90
2013,05,01,05,50,0.90
2013,05,01,05,51,0.90
2013,05,01,05,52,0.90
2013,05,01,05,53,0.90
2013,05,01,05,54,0.90
2013,05,01,05,55,0.90
2013,05,01,05,56,0.90
2013,05,01,05,57,0.90
2013,05,01,05,58,0.90
2013,05,01,05,59,0.90
2013,05,01,06,00,0.80
2013,05,01,06,01,0.80
2013,05,01,06,02,0.80
2013,05,01,06,03,0.80
2013,05,01,06,04,0.80
2013,05,01,06,05,0.80
2013,05,01,06,06,0.80
2013,05,01,06,07,0.80
2013,05,01,06,08,0.80
2013,05,01,06,09,0.80
2013,05,01,06,10,0.80
2013,05,01,06,11,0.80
2013,05,01,06,12,0.80
2013,05,01,06,13,0.80
2013,05,01,06,14,0.80
2013,05,01,06,15,0.80
2013,05,01,06,16,0.80
2013,05,01,06,17,0.80
2013,05,01,06,18,0.80
2013,05,01,06,19,0.80
2013,05,01,06,20,0.80
2013,05,01,06,21,0.80
2013,05,01,06,22,0.80
2013,05,01,06,23,0.90
2013,05,01,06,24,0.90
2013,05,01,06,25,0.90
2013,05,01,06,26,0.90
2013,05,01,06,27,0.90
2013,05,01,06,28,0.90
2013,05,01,06,29,0.90
2013,05,01,06,30,0.90
2013,05,01,06,31,0.90
2013,05,01,06,32,0.90
2013,05,01,06,33,0.90
2013,05,01,06,34,0.90
2013,05,01,06,35,0.90
2013,05,01,06,36,0.90
2013,05,01,06,37,0.90
2013,05,01,06,38,1.00
2013,05,01,06,39,1.00
2013,05,01,06,40,1.00
2013,05,01,06,41,1.00
2013,05,01,06,42,1.00
2013,05,01,06,43,1.00
2013,05,01,06,44,1.00
2013,05,01,06,45,1.10
2013,05,01,06,46,1.10
2013,05,01,06,47,1.10
2013,05,01,06,48,1.10
2013,05,01,06,49,1.10
2013,05,01,06,50,1.20
2013,05,01,06,51,1.20
2013,05,01,06,52,1.20
2013,05,01,06,53,1.20
2013,05,01,06,54,1.30
2013,05,01,06,55,1.30
2013,05,01,06,56,1.30
2013,05,01,06,57,1.40
2013,05,01,06,58,1.40
2013,05,01,06,59,1.40
2013,05,01,07,00,1.50
2013,05,01,07,01,1.50
2013,05,01,07,02,1.50
2013,05,01,07,03,1.60
2013,05,01,07,04,1.60
2013,05,01,07,05,1.60
2013,05,01,07,06,1.70
2013,05,01,07,07,1.70
2013,05,01,07,08,1.70
2013,05,01,07,09,1.70
2013,05,01,07,10,1.80
2013,05,01,07,11,1.80
2013,05,01,07,12,1.80
2013,05,01,07,13,1.80
2013,05,01,07,14,1.80
2013,05,01,07,15,1.90
2013,05,01,07,16,1.90
2013,05,01,07,17,1.90
2013,05,01,07,18,2.00
2013,05,01,07,19,2.00
2013,05,01,07,20,2.00
2013,05,01,07,21,2.10
2013,05,01,07,22,2.10
2013,05,01,07,23,2.10
2013,05,01,07,24,2.20
2013,05,01,07,25,2.20
2013,05,01,07,26,2.20
2013,05,01,07,27,2.20
2013,05,01,07,28,2.30
2013,05,01,07,29,2.30
2013,05,01,07,30,2.40
2013,05,01,07,31,2.50
2013,05,01,07,32,2.50
2013,05,01,07,33,2.60
2013,05,01,07,34,2.70
2013,05,01,07,35,2.70
2013,05,01,07,36,2.80
2013,05,01,07,37,2.90
2013,05,01,07,38,2.90
2013,05,01,07,39,3.00
2013,05,01,07,40,3.10
2013,05,01,07,41,3.20
2013,05,01,07,42,3.30
2013,05,01,07,43,3.40
2013,05,01,07,44,3.50
2013,05,01,07,45,3.50
2013,05,01,07,46,3.60
2013,05,01,07,47,3.70
2013,05,01,07,48,3.80
2013,05,01,07,49,3.80
2013,05,01,07,50,3.90
2013,05,01,07,51,4.00
2013,05,01,07,52,4.00
2013,05,01,07,53,4.10
2013,05,01,07,54,4.10
2013,05,01,07,55,4.20
2013,05,01,07,56,4.30
2013,05,01,07,57,4.30
2013,05,01,07,58,4.40
2013,05,01,07,59,4.50
2013,05,01,08,00,4.50
2013,05,01,08,01,4.60
2013,05,01,08,02,4.70
2013,05,01,08,03,4.70
2013,05,01,08,04,4.80
2013,05,01,08,05,4.80
2013,05,01,08,06,4.90
2013,05,01,08,07,5.00
2013,05,01,08,08,5.10
2013,05,01,08,09,5.20
2013,05,01,08,10,5.30
2013,05,01,08,11,5.30
2013,05,01,08,12,5.40
2013,05,01,08,13,5.40
2013,05,01,08,14,5.50
2013,05,01,08,15,5.60
2013,05,01,08,16,5.70
2013,05,01,08,17,5.70
2013,05,01,08,18,5.80
2013,05,01,08,19,5.90
2013,05,01,08,20,6.00
2013,05,01,08,21,6.00
2013,05,01,08,22,6.10
2013,05,01,08,23,6.20
2013,05,01,08,24,6.30
2013,05,01,08,25,6.30
2013,05,01,08,26,6.40
2013,05,01,08,27,6.50
2013,05,01,08,28,6.60
2013,05,01,08,29,6.60
2013,05,01,08,30,6.70
2013,05,01,08,31,6.80
2013,05,01,08,32,6.80
2013,05,01,08,33,6.90
2013,05,01,08,34,7.00
2013,05,01,08,35,7.10
2013,05,01,08,36,7.10
2013,05,01,08,37,7.20
2013,05,01,08,38,7.20
2013,05,01,08,39,7.20
2013,05,01,08,40,7.30
2013,05,01,08,41,7.30
2013,05,01,08,42,7.40
2013,05,01,08,43,7.40
2013,05,01,08,44,7.50
2013,05,01,08,45,7.50
2013,05,01,08,46,7.60
2013,05,01,08,47,7.60
2013,05,01,08,48,7.70
2013,05,01,08,49,7.80
2013,05,01,08,50,7.80
2013,05,01,08,51,7.90
2013,05,01,08,52,8.00
2013,05,01,08,53,8.10
2013,05,01,08,54,8.20
2013,05,01,08,55,8.30
2013,05,01,08,56,8.50
2013,05,01,08,57,8.60
2013,05,01,08,58,8.70
2013,05,01,08,59,8.90
2013,05,01,09,00,9.00
2013,05,01,09,01,9.20
2013,05,01,09,02,9.40
2013,05,01,09,03,9.50
2013,05,01,09,04,9.60
2013,05,01,09,05,9.60
2013,05,01,09,06,9.70
2013,05,01,09,07,9.80
2013,05,01,09,08,10.00
2013,05,01,09,09,10.10
2013,05,01,09,10,10.20
2013,05,01,09,11,10.30
2013,05,01,09,12,10.30
2013,05,01,09,13,10.40
2013,05,01,09,14,10.50
2013,05,01,09,15,10.70
2013,05,01,09,16,10.90
2013,05,01,09,17,11.00
2013,05,01,09,18,11.10
2013,05,01,09,19,11.30
2013,05,01,09,20,11.40
2013,05,01,09,21,11.50
2013,05,01,09,22,11.60
2013,05,01,09,23,11.70
2013,05,01,09,24,11.80
2013,05,01,09,25,11.80
2013,05,01,09,26,11.90
2013,05,01,09,27,12.00
2013,05,01,09,28,12.00
2013,05,01,09,29,12.10
2013,05,01,09,30,12.10
2013,05,01,09,31,12.10
2013,05,01,09,32,12.10
2013,05,01,09,33,12.20
2013,05,01,09,34,12.20
2013,05,01,09,35,12.20
2013,05,01,09,36,12.20
2013,05,01,09,37,12.20
2013,05,01,09,38,12.20
2013,05,01,09,39,12.20
2013,05,01,09,40,12.20
2013,05,01,09,41,12.20
2013,05,01,09,42,12.20
2013,05,01,09,43,12.30
2013,05,01,09,44,12.30
2013,05,01,09,45,12.30
2013,05,01,09,46,12.30
2013,05,01,09,47,12.30
2013,05,01,09,48,12.30
2013,05,01,09,49,12.30
2013,05,01,09,50,12.30
2013,05,01,09,51,12.30
2013,05,01,09,52,12.30
2013,05,01,09,53,12.30
2013,05,01,09,54,12.30
2013,05,01,09,55,12.30
2013,05,01,09,56,12.30
2013,05,01,09,57,12.20
2013,05,01,09,58,12.20
2013,05,01,09,59,12.20
2013,05,01,10,00,12.10
2013,05,01,10,01,12.10
2013,05,01,10,02,12.10
2013,05,01,10,03,12.00
2013,05,01,10,04,12.10
2013,05,01,10,05,12.10
2013,05,01,10,06,12.20
2013,05,01,10,07,12.20
2013,05,01,10,08,12.20
2013,05,01,10,09,12.30
2013,05,01,10,10,12.30
2013,05,01,10,11,12.30
2013,05,01,10,12,12.30
2013,05,01,10,13,12.30
2013,05,01,10,14,12.30
2013,05,01,10,15,12.40
2013,05,01,10,16,12.40
2013,05,01,10,17,12.50
2013,05,01,10,18,12.60
2013,05,01,10,19,12.60
2013,05,01,10,20,12.70
2013,05,01,10,21,12.80
2013,05,01,10,22,12.80
2013,05,01,10,23,12.80
2013,05,01,10,24,12.80
2013,05,01,10,25,12.80
2013,05,01,10,26,12.90
2013,05,01,10,27,12.90
2013,05,01,10,28,12.90
2013,05,01,10,29,12.90
2013,05,01,10,30,12.90
2013,05,01,10,31,12.90
2013,05,01,10,32,12.90
2013,05,01,10,33,12.90
2013,05,01,10,34,12.90
2013,05,01,10,35,12.90
2013,05,01,10,36,13.00
2013,05,01,10,37,13.10
2013,05,01,10,38,13.10
2013,05,01,10,39,13.20
2013,05,01,10,40,13.30
2013,05,01,10,41,13.30
2013,05,01,10,42,13.30
2013,05,01,10,43,13.30
2013,05,01,10,44,13.30
2013,05,01,10,45,13.30
2013,05,01,10,46,13.30
2013,05,01,10,47,13.30
2013,05,01,10,48,13.20
2013,05,01,10,49,13.20
2013,05,01,10,50,13.20
2013,05,01,10,51,13.20
2013,05,01,10,52,13.20
2013,05,01,10,53,13.20
2013,05,01,10,54,13.30
2013,05,01,10,55,13.30
2013,05,01,10,56,13.30
2013,05,01,10,57,13.30
2013,05,01,10,58,13.30
2013,05,01,10,59,13.30
2013,05,01,11,00,13.40
2013,05,01,11,01,13.50
2013,05,01,11,02,13.50
2013,05,01,11,03,13.60
2013,05,01,11,04,13.70
2013,05,01,11,05,13.70
2013,05,01,11,06,13.70
2013,05,01,11,07,13.80
2013,05,01,11,08,13.80
2013,05,01,11,09,13.80
2013,05,01,11,10,13.80
2013,05,01,11,11,13.80
2013,05,01,11,12,13.80
2013,05,01,11,13,13.80
2013,05,01,11,14,13.90
2013,05,01,11,15,13.90
2013,05,01,11,16,13.90
2013,05,01,11,17,13.90
2013,05,01,11,18,13.90
2013,05,01,11,19,13.90
2013,05,01,11,20,14.00
2013,05,01,11,21,14.00
2013,05,01,11,22,14.00
2013,05,01,11,23,14.10
2013,05,01,11,24,14.10
2013,05,01,11,25,14.20
2013,05,01,11,26,14.20
2013,05,01,11,27,14.20
2013,05,01,11,28,14.30
2013,05,01,11,29,14.40
2013,05,01,11,30,14.50
2013,05,01,11,31,14.50
2013,05,01,11,32,14.50
2013,05,01,11,33,14.60
2013,05,01,11,34,14.60
2013,05,01,11,35,14.60
2013,05,01,11,36,14.70
2013,05,01,11,37,14.70
2013,05,01,11,38,14.70
2013,05,01,11,39,14.80
2013,05,01,11,40,14.80
2013,05,01,11,41,14.80
2013,05,01,11,42,14.90
2013,05,01,11,43,14.90
2013,05,01,11,44,15.00
2013,05,01,11,45,15.00
2013,05,01,11,46,15.00
2013,05,01,11,47,14.90
2013,05,01,11,48,14.90
2013,05,01,11,49,14.90
2013,05,01,11,50,15.00
2013,05,01,11,51,15.00
2013,05,01,11,52,15.10
2013,05,01,11,53,15.10
2013,05,01,11,54,15.10
2013,05,01,11,55,15.10
2013,05,01,11,56,15.10
2013,05,01,11,57,15.00
2013,05,01,11,58,15.00
2013,05,01,11,59,15.10
2013,05,01,12,00,15.10
2013,05,01,12,01,15.10
2013,05,01,12,02,15.10
2013,05,01,12,03,15.00
2013,05,01,12,04,15.00
2013,05,01,12,05,15.00
2013,05,01,12,06,14.90
2013,05,01,12,07,14.90
2013,05,01,12,08,14.90
2013,05,01,12,09,14.90
2013,05,01,12,10,14.90
2013,05,01,12,11,14.90
2013,05,01,12,12,14.90
2013,05,01,12,13,14.90
2013,05,01,12,14,14.90
2013,05,01,12,15,14.80
2013,05,01,12,16,14.70
2013,05,01,12,17,14.70
2013,05,01,12,18,14.60
2013,05,01,12,19,14.60
2013,05,01,12,20,14.60
2013,05,01,12,21,14.60
2013,05,01,12,22,14.70
2013,05,01,12,23,14.80
2013,05,01,12,24,14.80
2013,05,01,12,25,14.90
2013,05,01,12,26,14.90
2013,05,01,12,27,15.00
2013,05,01,12,28,15.10
2013,05,01,12,29,15.20
2013,05,01,12,30,15.20
2013,05,01,12,31,15.30
2013,05,01,12,32,15.30
2013,05,01,12,33,15.40
2013,05,01,12,34,15.40
2013,05,01,12,35,15.40
2013,05,01,12,36,15.40
2013,05,01,12,37,15.40
2013,05,01,12,38,15.40
2013,05,01,12,39,15.40
2013,05,01,12,40,15.40
2013,05,01,12,41,15.40
2013,05,01,12,42,15.40
2013,05,01,12,43,15.40
2013,05,01,12,44,15.30
2013,05,01,12,45,15.30
2013,05,01,12,46,15.30
2013,05,01,12,47,15.30
2013,05,01,12,48,15.20
2013,05,01,12,49,15.20
2013,05,01,12,50,15.20
2013,05,01,12,51,15.20
2013,05,01,12,52,15.20
2013,05,01,12,53,15.20
2013,05,01,12,54,15.20
2013,05,01,12,55,15.10
2013,05,01,12,56,15.10
2013,05,01,12,57,15.10
2013,05,01,12,58,15.20
2013,05,01,12,59,15.20
2013,05,01,13,00,15.20
2013,05,01,13,01,15.20
2013,05,01,13,02,15.20
2013,05,01,13,03,15.30
2013,05,01,13,04,15.30
2013,05,01,13,05,15.40
2013,05,01,13,06,15.50
2013,05,01,13,07,15.50
2013,05,01,13,08,15.60
2013,05,01,13,09,15.60
2013,05,01,13,10,15.50
2013,05,01,13,11,15.50
2013,05,01,13,12,15.40
2013,05,01,13,13,15.30
2013,05,01,13,14,15.30
2013,05,01,13,15,15.20
2013,05,01,13,16,15.20
2013,05,01,13,17,15.20
2013,05,01,13,18,15.20
2013,05,01,13,19,15.20
2013,05,01,13,20,15.30
2013,05,01,13,21,15.20
2013,05,01,13,22,15.20
2013,05,01,13,23,15.20
2013,05,01,13,24,15.20
2013,05,01,13,25,15.20
2013,05,01,13,26,15.10
2013,05,01,13,27,15.00
2013,05,01,13,28,15.00
2013,05,01,13,29,14.90
2013,05,01,13,30,14.90
2013,05,01,13,31,14.80
2013,05,01,13,32,14.80
2013,05,01,13,33,14.80
2013,05,01,13,34,14.80
2013,05,01,13,35,14.80
2013,05,01,13,36,14.80
2013,05,01,13,37,14.90
2013,05,01,13,38,15.00
2013,05,01,13,39,15.10
2013,05,01,13,40,15.20
2013,05,01,13,41,15.20
2013,05,01,13,42,15.20
2013,05,01,13,43,15.30
2013,05,01,13,44,15.30
2013,05,01,13,45,15.40
2013,05,01,13,46,15.50
2013,05,01,13,47,15.50
2013,05,01,13,48,15.60
2013,05,01,13,49,15.60
2013,05,01,13,50,15.60
2013,05,01,13,51,15.50
2013,05,01,13,52,15.50
2013,05,01,13,53,15.60
2013,05,01,13,54,15.60
2013,05,01,13,55,15.70
2013,05,01,13,56,15.80
2013,05,01,13,57,15.80
2013,05,01,13,58,15.90
2013,05,01,13,59,15.90
2013,05,01,14,00,16.00
2013,05,01,14,01,16.10
2013,05,01,14,02,16.10
2013,05,01,14,03,16.20
2013,05,01,14,04,16.20
2013,05,01,14,05,16.30
2013,05,01,14,06,16.30
2013,05,01,14,07,16.50
2013,05,01,14,08,16.50
2013,05,01,14,09,16.60
2013,05,01,14,10,16.60
2013,05,01,14,11,16.60
2013,05,01,14,12,16.60
2013,05,01,14,13,16.60
2013,05,01,14,14,16.60
2013,05,01,14,15,16.60
2013,05,01,14,16,16.60
2013,05,01,14,17,16.60
2013,05,01,14,18,16.50
2013,05,01,14,19,16.50
2013,05,01,14,20,16.50
2013,05,01,14,21,16.50
2013,05,01,14,22,16.60
2013,05,01,14,23,16.60
2013,05,01,14,24,16.70
2013,05,01,14,25,16.70
2013,05,01,14,26,16.70
2013,05,01,14,27,16.70
2013,05,01,14,28,16.70
2013,05,01,14,29,16.70
2013,05,01,14,30,16.70
2013,05,01,14,31,16.70
2013,05,01,14,32,16.80
2013,05,01,14,33,16.80
2013,05,01,14,34,16.80
2013,05,01,14,35,16.90
2013,05,01,14,36,16.90
2013,05,01,14,37,16.90
2013,05,01,14,38,17.00
2013,05,01,14,39,17.10
2013,05,01,14,40,17.10
2013,05,01,14,41,17.20
2013,05,01,14,42,17.20
2013,05,01,14,43,17.20
2013,05,01,14,44,17.20
2013,05,01,14,45,17.20
2013,05,01,14,46,17.20
2013,05,01,14,47,17.20
2013,05,01,14,48,17.20
2013,05,01,14,49,17.20
2013,05,01,14,50,17.20
2013,05,01,14,51,17.10
2013,05,01,14,52,17.20
2013,05,01,14,53,17.20
2013,05,01,14,54,17.10
2013,05,01,14,55,17.00
2013,05,01,14,56,16.90
2013,05,01,14,57,16.80
2013,05,01,14,58,16.70
2013,05,01,14,59,16.60
2013,05,01,15,00,16.60
2013,05,01,15,01,16.50
2013,05,01,15,02,16.50
2013,05,01,15,03,16.50
2013,05,01,15,04,16.50
2013,05,01,15,05,16.50
2013,05,01,15,06,16.40
2013,05,01,15,07,16.40
2013,05,01,15,08,16.40
2013,05,01,15,09,16.30
2013,05,01,15,10,16.20
2013,05,01,15,11,16.20
2013,05,01,15,12,16.10
2013,05,01,15,13,16.00
2013,05,01,15,14,15.90
2013,05,01,15,15,15.90
2013,05,01,15,16,15.80
2013,05,01,15,17,15.70
2013,05,01,15,18,15.70
2013,05,01,15,19,15.70
2013,05,01,15,20,15.70
2013,05,01,15,21,15.70
2013,05,01,15,22,15.70
2013,05,01,15,23,15.80
2013,05,01,15,24,15.90
2013,05,01,15,25,15.90
2013,05,01,15,26,16.00
2013,05,01,15,27,16.00
2013,05,01,15,28,16.10
2013,05,01,15,29,16.10
2013,05,01,15,30,16.10
2013,05,01,15,31,16.10
2013,05,01,15,32,16.10
2013,05,01,15,33,16.10
2013,05,01,15,34,16.10
2013,05,01,15,35,16.10
2013,05,01,15,36,16.20
2013,05,01,15,37,16.20
2013,05,01,15,38,16.30
2013,05,01,15,39,16.30
2013,05,01,15,40,16.40
2013,05,01,15,41,16.40
2013,05,01,15,42,16.50
2013,05,01,15,43,16.60
2013,05,01,15,44,16.70
2013,05,01,15,45,16.80
2013,05,01,15,46,16.90
2013,05,01,15,47,17.00
2013,05,01,15,48,17.10
2013,05,01,15,49,17.10
2013,05,01,15,50,17.10
2013,05,01,15,51,17.20
2013,05,01,15,52,17.20
2013,05,01,15,53,17.20
2013,05,01,15,54,17.30
2013,05,01,15,55,17.30
2013,05,01,15,56,17.30
2013,05,01,15,57,17.30
2013,05,01,15,58,17.30
2013,05,01,15,59,17.40
2013,05,01,16,00,17.50
2013,05,01,16,01,17.50
2013,05,01,16,02,17.70
2013,05,01,16,03,17.70
2013,05,01,16,04,17.80
2013,05,01,16,05,17.90
2013,05,01,16,06,17.90
2013,05,01,16,07,17.90
2013,05,01,16,08,18.00
2013,05,01,16,09,18.00
2013,05,01,16,10,18.10
2013,05,01,16,11,18.10
2013,05,01,16,12,18.20
2013,05,01,16,13,18.20
2013,05,01,16,14,18.10
2013,05,01,16,15,18.10
2013,05,01,16,16,18.00
2013,05,01,16,17,18.00
2013,05,01,16,18,17.90
2013,05,01,16,19,17.80
2013,05,01,16,20,17.70
2013,05,01,16,21,17.70
2013,05,01,16,22,17.60
2013,05,01,16,23,17.60
2013,05,01,16,24,17.50
2013,05,01,16,25,17.50
2013,05,01,16,26,17.50
2013,05,01,16,27,17.50
2013,05,01,16,28,17.60
2013,05,01,16,29,17.60
2013,05,01,16,30,17.60
2013,05,01,16,31,17.60
2013,05,01,16,32,17.60
2013,05,01,16,33,17.60
2013,05,01,16,34,17.60
2013,05,01,16,35,17.60
2013,05,01,16,36,17.60
2013,05,01,16,37,17.60
2013,05,01,16,38,17.50
2013,05,01,16,39,17.40
2013,05,01,16,40,17.30
2013,05,01,16,41,17.30
2013,05,01,16,42,17.20
2013,05,01,16,43,17.20
2013,05,01,16,44,17.10
2013,05,01,16,45,17.10
2013,05,01,16,46,17.00
2013,05,01,16,47,17.00
2013,05,01,16,48,16.90
2013,05,01,16,49,16.90
2013,05,01,16,50,16.80
2013,05,01,16,51,16.80
2013,05,01,16,52,16.80
2013,05,01,16,53,16.80
2013,05,01,16,54,16.80
2013,05,01,16,55,16.80
2013,05,01,16,56,16.80
2013,05,01,16,57,16.80
2013,05,01,16,58,16.80
2013,05,01,16,59,16.80
2013,05,01,17,00,16.80
2013,05,01,17,01,16.80
2013,05,01,17,02,16.80
2013,05,01,17,03,16.80
2013,05,01,17,04,16.80
2013,05,01,17,05,16.80
2013,05,01,17,06,16.80
2013,05,01,17,07,16.70
2013,05,01,17,08,16.70
2013,05,01,17,09,16.70
2013,05,01,17,10,16.70
2013,05,01,17,11,16.70
2013,05,01,17,12,16.60
2013,05,01,17,13,16.60
2013,05,01,17,14,16.70
2013,05,01,17,15,16.70
2013,05,01,17,16,16.80
2013,05,01,17,17,16.80
2013,05,01,17,18,16.80
2013,05,01,17,19,16.70
2013,05,01,17,20,16.70
2013,05,01,17,21,16.70
2013,05,01,17,22,16.70
2013,05,01,17,23,16.70
2013,05,01,17,24,16.70
2013,05,01,17,25,16.80
2013,05,01,17,26,16.80
2013,05,01,17,27,16.80
2013,05,01,17,28,16.80
2013,05,01,17,29,16.70
2013,05,01,17,30,16.70
2013,05,01,17,31,16.60
2013,05,01,17,32,16.60
2013,05,01,17,33,16.60
2013,05,01,17,34,16.60
2013,05,01,17,35,16.60
2013,05,01,17,36,16.60
2013,05,01,17,37,16.50
2013,05,01,17,38,16.50
2013,05,01,17,39,16.40
2013,05,01,17,40,16.40
2013,05,01,17,41,16.50
2013,05,01,17,42,16.50
2013,05,01,17,43,16.50